User: anonymous   Login
Location: St. Louis
(38.6270°N, 90.1994°W)
Time: 00:28:31
(UTC-06:00)
Language:

NOAA 15 - Orbit

View from above orbital plane
View from above orbital plane
View from above satellite
View from above satellite

Ground track
Ground track

The orbit data is extracted from the following two-line orbital elements,

1 25338U 98030A   22026.76538889  .00000048  00000-0  38277-4 0  9990
2 25338  98.6611  58.0376 0010189 356.4144   3.6961 14.26084954233072
Epoch (UTC): 26 January 2022 18:22:09
Eccentricity: 0.0010189
inclination: 98.6611°
perigee height: 797 km
apogee height: 812 km
right ascension of ascending node: 58.0376°
argument of perigee: 356.4144°
revolutions per day: 14.26084954
mean anomaly at epoch: 3.6961°
orbit number at epoch: 23307

The dashed part of the orbit path shows where the satellite is in the earth's shadow,  

DLR